カタログに戻る

TATIANA

運用中科学PO
NORAD 28523·PAYLOAD·🇷🇺 Russia

打ち上げ Jan 20, 2005 から Plesetsk Cosmodrome

Loading…

次のパス (今後24時間)

TLE

最新Source: Space-Track

元期: Sep 14, 2026, 13:05 UTC

1 28523U 05002C   26257.54573811  .00000092  00000-0  62887-4 0  9999
2 28523  82.9533 337.9611 0039038  84.2246 276.3366 13.88091652 96350

AllMySatでTATIANAをリアルタイム追跡

Download on the App Store